TimeCDT,TemperatureF,Dew PointF,Humidity,Sea Level PressureIn,VisibilityMPH,Wind Direction,Wind SpeedMPH,Gust SpeedMPH,PrecipitationIn,Events,Conditions,WindDirDegrees,DateUTC
12:15 AM,15.8,14.0,93,30.02,10.0,WNW,3.5,-,N/A,,Clear,290,2013-03-12 05:15:00
12:35 AM,18.1,17.1,96,30.02,10.0,WNW,3.5,-,N/A,,Clear,290,2013-03-12 05:35:00
12:55 AM,17.4,16.5,96,30.02,10.0,West,4.6,-,N/A,,Clear,280,2013-03-12 05:55:00
1:15 AM,19.9,18.9,96,30.02,10.0,WNW,4.6,-,N/A,,Clear,290,2013-03-12 06:15:00
1:35 AM,17.1,15.8,95,30.03,10.0,West,5.8,-,N/A,,Clear,280,2013-03-12 06:35:00
1:55 AM,21.0,20.5,98,30.04,10.0,West,8.1,-,N/A,,Clear,280,2013-03-12 06:55:00
2:15 AM,18.0,16.9,96,30.04,10.0,West,9.2,-,N/A,,Clear,280,2013-03-12 07:15:00
2:35 AM,23.7,21.9,93,30.05,10.0,West,6.9,-,N/A,,Clear,270,2013-03-12 07:35:00
2:55 AM,21.7,20.5,95,30.05,10.0,West,6.9,-,N/A,,Clear,270,2013-03-12 07:55:00
3:15 AM,23.2,21.2,92,30.05,10.0,West,8.1,-,N/A,,Clear,270,2013-03-12 08:15:00
3:35 AM,21.7,19.9,93,30.05,10.0,West,8.1,-,N/A,,Clear,270,2013-03-12 08:35:00
3:55 AM,20.3,18.9,94,30.04,10.0,West,5.8,-,N/A,,Clear,270,2013-03-12 08:55:00
4:15 AM,20.5,19.4,96,30.03,10.0,West,6.9,-,N/A,,Clear,260,2013-03-12 09:15:00
4:35 AM,20.1,18.7,94,30.03,10.0,West,8.1,-,N/A,,Clear,280,2013-03-12 09:35:00
4:55 AM,18.7,18.0,97,30.03,10.0,West,6.9,-,N/A,,Clear,270,2013-03-12 09:55:00
5:15 AM,20.8,19.8,96,30.03,10.0,West,8.1,-,N/A,,Clear,280,2013-03-12 10:15:00
5:35 AM,21.2,19.9,95,30.04,10.0,West,10.4,-,N/A,,Clear,270,2013-03-12 10:35:00
5:55 AM,25.3,22.8,90,30.05,10.0,West,12.7,-,N/A,,Scattered Clouds,270,2013-03-12 10:55:00
6:15 AM,23.2,20.7,90,30.05,10.0,West,10.4,-,N/A,,Scattered Clouds,280,2013-03-12 11:15:00
6:35 AM,23.7,21.6,91,30.06,10.0,West,10.4,-,N/A,,Scattered Clouds,280,2013-03-12 11:35:00
6:55 AM,25.9,21.7,84,30.06,10.0,West,12.7,-,N/A,,Clear,280,2013-03-12 11:55:00
7:15 AM,28.2,22.6,80,30.08,10.0,WNW,21.9,-,N/A,,Clear,300,2013-03-12 12:15:00
7:35 AM,30.2,23.4,76,30.09,10.0,WNW,20.7,25.3,N/A,,Clear,290,2013-03-12 12:35:00
7:55 AM,29.1,23.2,78,30.10,10.0,WNW,18.4,-,N/A,,Scattered Clouds,290,2013-03-12 12:55:00
8:15 AM,28.2,22.8,80,30.10,10.0,West,13.8,-,N/A,,Mostly Cloudy,280,2013-03-12 13:15:00
8:35 AM,29.3,23.5,79,30.11,10.0,WNW,16.1,-,N/A,,Overcast,290,2013-03-12 13:35:00
8:55 AM,30.0,24.3,79,30.12,10.0,WNW,17.3,-,N/A,,Overcast,290,2013-03-12 13:55:00
9:15 AM,31.8,24.4,74,30.13,10.0,WNW,23.0,29.9,N/A,,Overcast,300,2013-03-12 14:15:00
9:35 AM,32.2,24.8,74,30.13,10.0,WNW,19.6,-,N/A,,Overcast,300,2013-03-12 14:35:00
9:55 AM,32.0,25.3,76,30.14,10.0,WNW,19.6,25.3,N/A,,Overcast,290,2013-03-12 14:55:00
10:15 AM,32.0,25.7,78,30.15,10.0,WNW,20.7,-,N/A,,Overcast,290,2013-03-12 15:15:00
10:35 AM,32.0,25.2,76,30.16,10.0,WNW,21.9,26.5,N/A,,Overcast,300,2013-03-12 15:35:00
10:55 AM,32.0,24.8,75,30.16,10.0,WNW,25.3,32.2,N/A,,Overcast,300,2013-03-12 15:55:00
11:15 AM,32.0,25.2,76,30.18,10.0,NW,20.7,29.9,N/A,,Overcast,310,2013-03-12 16:15:00
11:35 AM,32.0,24.6,74,30.19,10.0,WNW,24.2,29.9,N/A,,Mostly Cloudy,300,2013-03-12 16:35:00
11:55 AM,32.2,25.3,76,30.19,10.0,NW,21.9,-,N/A,,Scattered Clouds,310,2013-03-12 16:55:00
12:15 PM,32.9,25.7,75,30.19,10.0,WNW,18.4,24.2,N/A,,Mostly Cloudy,300,2013-03-12 17:15:00
12:35 PM,32.2,25.5,76,30.21,10.0,NW,23.0,34.5,N/A,,Overcast,310,2013-03-12 17:35:00
12:55 PM,32.0,25.0,75,30.21,10.0,WNW,21.9,28.8,N/A,,Overcast,300,2013-03-12 17:55:00
1:15 PM,32.4,25.2,75,30.22,10.0,NW,24.2,28.8,N/A,,Overcast,310,2013-03-12 18:15:00
1:35 PM,32.9,25.9,75,30.22,10.0,NW,23.0,-,N/A,,Overcast,310,2013-03-12 18:35:00
1:55 PM,32.0,25.0,75,30.23,10.0,NW,21.9,28.8,N/A,,Overcast,310,2013-03-12 18:55:00
2:15 PM,32.0,24.8,75,30.23,10.0,NW,24.2,-,N/A,,Overcast,310,2013-03-12 19:15:00
2:35 PM,32.0,24.6,74,30.23,10.0,NW,21.9,27.6,N/A,,Overcast,310,2013-03-12 19:35:00
2:55 PM,32.0,24.3,73,30.23,10.0,NW,21.9,28.8,N/A,,Overcast,310,2013-03-12 19:55:00
3:15 PM,32.0,23.9,72,30.22,10.0,NW,16.1,25.3,N/A,,Overcast,320,2013-03-12 20:15:00
3:35 PM,32.0,24.6,74,30.23,10.0,NW,15.0,-,N/A,,Overcast,320,2013-03-12 20:35:00
3:55 PM,32.0,24.3,73,30.24,10.0,NW,19.6,27.6,N/A,,Overcast,320,2013-03-12 20:55:00
4:15 PM,32.0,24.1,73,30.24,10.0,NW,13.8,21.9,N/A,,Overcast,320,2013-03-12 21:15:00
4:35 PM,32.0,24.6,74,30.25,10.0,NW,16.1,-,N/A,,Overcast,320,2013-03-12 21:35:00
4:55 PM,31.8,23.9,73,30.26,10.0,NW,23.0,27.6,N/A,,Overcast,310,2013-03-12 21:55:00
5:15 PM,31.1,24.1,75,30.26,10.0,NW,18.4,21.9,N/A,,Overcast,310,2013-03-12 22:15:00
5:35 PM,31.1,23.9,75,30.26,10.0,NW,17.3,-,N/A,,Overcast,320,2013-03-12 22:35:00
5:55 PM,31.1,23.0,72,30.27,10.0,NW,19.6,25.3,N/A,,Overcast,310,2013-03-12 22:55:00
6:15 PM,30.7,23.7,75,30.27,10.0,NW,17.3,-,N/A,,Overcast,310,2013-03-12 23:15:00
6:35 PM,30.6,22.6,72,30.27,10.0,WNW,21.9,-,N/A,,Overcast,300,2013-03-12 23:35:00
6:55 PM,30.2,22.6,73,30.27,10.0,NW,16.1,-,N/A,,Overcast,310,2013-03-12 23:55:00
7:15 PM,30.2,23.0,75,30.28,10.0,NW,16.1,-,N/A,,Overcast,310,2013-03-13 00:15:00
7:35 PM,29.8,23.5,77,30.28,10.0,NW,12.7,18.4,N/A,,Overcast,310,2013-03-13 00:35:00
7:55 PM,29.3,23.5,79,30.29,10.0,NW,15.0,-,N/A,,Overcast,310,2013-03-13 00:55:00
8:15 PM,28.9,23.7,81,30.29,10.0,WNW,12.7,-,N/A,,Overcast,300,2013-03-13 01:15:00
8:35 PM,29.3,23.7,80,30.30,10.0,NW,13.8,-,N/A,,Overcast,310,2013-03-13 01:35:00
8:55 PM,28.2,22.8,80,30.30,10.0,NW,10.4,-,N/A,,Mostly Cloudy,310,2013-03-13 01:55:00
9:15 PM,27.5,22.3,81,30.30,10.0,NW,10.4,-,N/A,,Scattered Clouds,310,2013-03-13 02:15:00
9:35 PM,26.4,21.2,81,30.31,10.0,WNW,10.4,-,N/A,,Scattered Clouds,300,2013-03-13 02:35:00
9:55 PM,23.9,20.1,85,30.31,10.0,NW,6.9,-,N/A,,Clear,320,2013-03-13 02:55:00
10:15 PM,22.1,19.2,89,30.31,10.0,NW,5.8,-,N/A,,Clear,310,2013-03-13 03:15:00
10:35 PM,22.1,19.2,89,30.31,10.0,NW,3.5,-,N/A,,Clear,320,2013-03-13 03:35:00
10:55 PM,20.8,18.0,89,30.32,10.0,WNW,3.5,-,N/A,,Clear,300,2013-03-13 03:55:00
11:15 PM,20.8,18.5,91,30.32,10.0,NW,3.5,-,N/A,,Clear,310,2013-03-13 04:15:00
11:35 PM,19.6,17.1,90,30.33,10.0,West,4.6,-,N/A,,Clear,280,2013-03-13 04:35:00
11:55 PM,17.8,15.8,92,30.33,10.0,West,4.6,-,N/A,,Clear,270,2013-03-13 04:55:00